Florala, AL

9:24 PM CDT on May 23, 2017 (GMT -0500)
Florala

Weather History for K0J4 - January, 2013

Change the Weather History Date:

Saturday, January 26, 2013

  Actual Average (KCEW) Record (KCEW)
Temperature  
Mean Temperature 63 °F -  
Max Temperature 71 °F 58 °F 79 °F (1950)
Min Temperature 52 °F 32 °F 18 °F (2001)
Degree Days  
Heating Degree Days 2    
Growing Degree Days 13 (Base 50)    
Moisture  
Dew Point 56 °F    
Average Humidity 82    
Maximum Humidity 94    
Minimum Humidity 63    
Precipitation  
Precipitation 0.00 in - - ()
Sea Level Pressure  
Sea Level Pressure 30.24 in    
Wind  
Wind Speed 3 mph (NNW)    
Max Wind Speed 8 mph    
Max Gust Speed -    
Visibility 9 miles    
Events      
Averages and records for this station are not official NWS values.
T = Trace of Precipitation, MM = Missing Value Source: NWS Daily Summary

Daily Weather History Graph

Daily Weather History Graph

Search for Another Location

Airport or City:

Trip Planner

Search our weather history database for the weather conditions in past years. The results will help you decide how hot, cold, wet, or windy it might be!

Date:

Astronomy

Jan. 26, 2013 Rise Set
Actual Time 6:40 AM CST 5:15 PM CST
Civil Twilight 6:14 AM CST 5:41 PM CST
Nautical Twilight 5:45 AM CST 6:10 PM CST
Astronomical Twilight 5:16 AM CST 6:39 PM CST
Moon 5:06 PM CST (1/26) 5:59 AM CST (1/26)
Length of Visible Light 11h 26m
Length of Day
10h 35m
Full, 100% of the Moon is Illuminated
Jan 26
Full
Jan 26
Full
Feb 3
Last Quarter
Feb 10
New
Feb 17
First Quarter

Hourly Weather History & Observations

Time (CST) Temp. Dew Point Humidity Pressure Visibility Wind Dir Wind Speed Gust Speed Precip Events Conditions
12:58 AM 57.0 °F 54.0 °F 89% 30.19 in 10.0 mi SW 4.6 mph - N/A   Clear
1:58 AM 57.0 °F 54.0 °F 89% 30.19 in 10.0 mi SW 3.5 mph - N/A   Clear
2:58 AM 57.0 °F 54.0 °F 89% 30.18 in 10.0 mi SW 3.5 mph - N/A   Clear
3:58 AM 57.0 °F 54.0 °F 89% 30.19 in 10.0 mi Calm Calm - N/A   Clear
4:58 AM 55.9 °F 54.0 °F 93% 30.20 in 8.0 mi SW 3.5 mph - N/A   Mostly Cloudy
5:58 AM 57.0 °F 55.0 °F 93% 30.21 in 9.0 mi Calm Calm - N/A   Overcast
6:54 AM 57.2 °F 55.4 °F 94% 30.24 in 10.0 mi Calm Calm - N/A   Overcast
6:58 AM 57.9 °F 55.0 °F 90% 30.23 in 10.0 mi Calm Calm - N/A   Overcast
7:27 AM 57.2 °F 55.4 °F 94% 30.24 in 8.0 mi Calm Calm - N/A   Overcast
7:58 AM 57.9 °F 55.9 °F 93% 30.24 in 8.0 mi Calm Calm - N/A   Overcast
8:30 AM 59.0 °F 57.2 °F 94% 30.26 in 8.0 mi Calm Calm - N/A   Overcast
8:58 AM 60.1 °F 55.9 °F 86% 30.26 in 7.0 mi Variable 3.5 mph - N/A   Overcast
9:58 AM 61.0 °F 57.0 °F 87% 30.27 in 7.0 mi Calm Calm - N/A   Overcast
10:03 AM 60.8 °F 57.2 °F 88% 30.27 in 7.0 mi Calm Calm - N/A   Overcast
10:47 AM 62.6 °F 57.2 °F 82% 30.27 in 9.0 mi SSW 4.6 mph - N/A   Overcast
10:58 AM 64.0 °F 57.0 °F 78% 30.26 in 9.0 mi SSW 6.9 mph - N/A   Overcast
11:25 AM 64.4 °F 57.2 °F 77% 30.26 in 10.0 mi Variable 3.5 mph - N/A   Scattered Clouds
11:37 AM 66.2 °F 57.2 °F 73% 30.25 in 10.0 mi Calm Calm - N/A   Mostly Cloudy
11:58 AM 66.9 °F 57.0 °F 70% 30.24 in 10.0 mi Variable 4.6 mph - N/A   Mostly Cloudy
12:07 PM 66.2 °F 57.2 °F 73% 30.24 in 10.0 mi Variable 4.6 mph - N/A   Scattered Clouds
12:58 PM 71.1 °F 57.9 °F 63% 30.21 in 10.0 mi Calm Calm - N/A   Partly Cloudy
1:58 PM 70.0 °F 57.0 °F 63% 30.20 in 10.0 mi Variable 4.6 mph - N/A   Clear
2:58 PM 70.0 °F 57.0 °F 63% 30.20 in 10.0 mi NW 3.5 mph - N/A   Overcast
3:58 PM 70.0 °F 57.0 °F 63% 30.21 in 10.0 mi Calm Calm - N/A   Overcast
4:50 PM 66.2 °F 57.2 °F 73% 30.22 in 10.0 mi North 6.9 mph - N/A   Overcast
4:58 PM 66.9 °F 57.0 °F 70% 30.22 in 10.0 mi North 5.8 mph - N/A   Overcast
5:08 PM 66.2 °F 57.2 °F 73% 30.23 in 10.0 mi North 8.1 mph - N/A   Overcast
5:58 PM 62.1 °F 55.9 °F 80% 30.24 in 10.0 mi North 5.8 mph - N/A   Overcast
6:58 PM 61.0 °F 55.0 °F 81% 30.25 in 10.0 mi NNE 3.5 mph - N/A   Overcast
7:58 PM 61.0 °F 55.0 °F 81% 30.25 in 10.0 mi North 3.5 mph - N/A   Overcast
8:58 PM 60.1 °F 55.0 °F 83% 30.26 in 10.0 mi NNE 5.8 mph - N/A   Overcast
9:58 PM 59.0 °F 53.1 °F 81% 30.27 in 10.0 mi NNE 4.6 mph - N/A   Overcast
10:58 PM 55.9 °F 51.1 °F 84% 30.27 in 10.0 mi Calm Calm - N/A   Clear
11:58 PM 52.0 °F 50.0 °F 93% 30.28 in 10.0 mi Calm Calm - N/A   Clear